Time,TemperatureF,DewpointF,PressureIn,WindDirection,WindDirectionDegrees,WindSpeedMPH,WindSpeedGustMPH,Humidity,HourlyPrecipIn,Conditions,Clouds,dailyrainin,SoftwareType,DateUTC
2013-01-12 00:04:00,33.1,33.0,30.20,ENE,75,0.0,-999.0,100,-99.99,,,0.01,weatherlink.com 1.10,2013-01-12 05:04:00,
2013-01-12 00:19:00,33.1,33.0,30.20,ENE,75,0.0,-999.0,100,-99.99,,,0.01,weatherlink.com 1.10,2013-01-12 05:19:00,
2013-01-12 00:34:00,33.1,33.0,30.19,ENE,75,0.0,-999.0,100,-99.99,,,0.01,weatherlink.com 1.10,2013-01-12 05:34:00,
2013-01-12 00:49:00,33.1,33.0,30.18,ENE,75,0.0,-999.0,100,-99.99,,,0.01,weatherlink.com 1.10,2013-01-12 05:49:00,
2013-01-12 01:04:00,32.9,33.0,30.19,ENE,75,0.0,-999.0,100,-99.99,,,0.01,weatherlink.com 1.10,2013-01-12 06:04:00,
2013-01-12 01:19:00,32.9,33.0,30.19,ENE,75,0.0,-999.0,100,-99.99,,,0.01,weatherlink.com 1.10,2013-01-12 06:19:00,
2013-01-12 01:34:00,33.1,33.0,30.18,ENE,75,0.0,-999.0,100,-99.99,,,0.01,weatherlink.com 1.10,2013-01-12 06:34:00,
2013-01-12 01:49:00,33.1,33.0,30.18,ENE,75,0.0,-999.0,100,-99.99,,,0.01,weatherlink.com 1.10,2013-01-12 06:49:00,
2013-01-12 02:04:00,33.1,33.0,30.18,ENE,75,0.0,-999.0,100,-99.99,,,0.01,weatherlink.com 1.10,2013-01-12 07:04:00,
2013-01-12 02:19:00,33.1,33.0,30.18,ENE,75,0.0,-999.0,100,-99.99,,,0.01,weatherlink.com 1.10,2013-01-12 07:19:00,
2013-01-12 02:34:00,32.9,33.0,30.18,ENE,75,0.0,-999.0,100,-99.99,,,0.01,weatherlink.com 1.10,2013-01-12 07:34:00,
2013-01-12 02:49:00,33.1,33.0,30.18,ENE,75,0.0,-999.0,100,-99.99,,,0.01,weatherlink.com 1.10,2013-01-12 07:49:00,
2013-01-12 03:04:00,33.1,33.0,30.16,ENE,75,0.0,-999.0,100,-99.99,,,0.01,weatherlink.com 1.10,2013-01-12 08:04:00,
2013-01-12 03:19:00,33.1,33.0,30.16,ENE,75,0.0,-999.0,100,-99.99,,,0.01,weatherlink.com 1.10,2013-01-12 08:19:00,
2013-01-12 03:34:00,33.1,33.0,30.16,ENE,75,0.0,-999.0,100,-99.99,,,0.01,weatherlink.com 1.10,2013-01-12 08:34:00,
2013-01-12 03:49:00,33.1,33.0,30.16,ENE,75,0.0,-999.0,100,-99.99,,,0.01,weatherlink.com 1.10,2013-01-12 08:49:00,
2013-01-12 04:04:00,33.1,33.0,30.16,ENE,75,0.0,-999.0,100,-99.99,,,0.01,weatherlink.com 1.10,2013-01-12 09:04:00,
2013-01-12 04:23:00,33.1,33.0,30.15,ENE,75,0.0,-999.0,100,-99.99,,,0.01,weatherlink.com 1.10,2013-01-12 09:23:00,
2013-01-12 04:34:00,33.1,33.0,30.15,ENE,75,0.0,-999.0,100,-99.99,,,0.01,weatherlink.com 1.10,2013-01-12 09:34:00,
2013-01-12 04:49:00,33.1,33.0,30.16,ENE,75,0.0,-999.0,100,-99.99,,,0.01,weatherlink.com 1.10,2013-01-12 09:49:00,
2013-01-12 05:04:00,33.1,33.0,30.16,ENE,75,0.0,-999.0,100,-99.99,,,0.01,weatherlink.com 1.10,2013-01-12 10:04:00,
2013-01-12 05:19:00,33.2,33.0,30.16,ENE,75,0.0,-999.0,100,-99.99,,,0.01,weatherlink.com 1.10,2013-01-12 10:19:00,
2013-01-12 05:34:00,33.2,33.0,30.15,ENE,75,0.0,-999.0,100,-99.99,,,0.01,weatherlink.com 1.10,2013-01-12 10:34:00,
2013-01-12 05:49:00,33.2,33.0,30.14,ENE,75,0.0,-999.0,100,-99.99,,,0.02,weatherlink.com 1.10,2013-01-12 10:49:00,
2013-01-12 06:04:00,33.2,33.0,30.15,ENE,75,0.0,-999.0,100,-99.99,,,0.02,weatherlink.com 1.10,2013-01-12 11:04:00,
2013-01-12 06:19:00,33.2,33.0,30.15,ENE,75,0.0,-999.0,100,-99.99,,,0.02,weatherlink.com 1.10,2013-01-12 11:19:00,
2013-01-12 06:34:00,33.2,33.0,30.16,ENE,75,0.0,-999.0,100,-99.99,,,0.02,weatherlink.com 1.10,2013-01-12 11:34:00,
2013-01-12 06:49:00,33.2,33.0,30.18,ENE,75,0.0,-999.0,100,-99.99,,,0.02,weatherlink.com 1.10,2013-01-12 11:49:00,
2013-01-12 07:04:00,33.4,33.0,30.17,ENE,75,0.0,-999.0,100,-99.99,,,0.02,weatherlink.com 1.10,2013-01-12 12:04:00,
2013-01-12 07:19:00,33.4,33.0,30.17,ENE,75,0.0,-999.0,100,-99.99,,,0.02,weatherlink.com 1.10,2013-01-12 12:19:00,
2013-01-12 07:34:00,33.4,33.0,30.18,ENE,75,0.0,-999.0,100,-99.99,,,0.02,weatherlink.com 1.10,2013-01-12 12:34:00,
2013-01-12 07:49:00,33.5,34.0,30.18,ENE,75,0.0,-999.0,100,-99.99,,,0.02,weatherlink.com 1.10,2013-01-12 12:49:00,
2013-01-12 08:04:00,33.5,34.0,30.18,ENE,75,0.0,-999.0,100,-99.99,,,0.02,weatherlink.com 1.10,2013-01-12 13:04:00,
2013-01-12 08:19:00,33.7,34.0,30.18,ENE,75,0.0,-999.0,100,-99.99,,,0.02,weatherlink.com 1.10,2013-01-12 13:19:00,
2013-01-12 08:34:00,33.8,34.0,30.19,ENE,75,0.0,-999.0,100,-99.99,,,0.02,weatherlink.com 1.10,2013-01-12 13:34:00,
2013-01-12 08:49:00,34.0,34.0,30.19,ENE,75,0.0,-999.0,100,-99.99,,,0.02,weatherlink.com 1.10,2013-01-12 13:49:00,
2013-01-12 09:04:00,34.4,34.0,30.19,ENE,75,0.0,-999.0,100,-99.99,,,0.02,weatherlink.com 1.10,2013-01-12 14:04:00,
2013-01-12 09:19:00,34.7,35.0,30.19,ENE,75,0.0,-999.0,100,-99.99,,,0.02,weatherlink.com 1.10,2013-01-12 14:19:00,
2013-01-12 09:34:00,35.3,35.0,30.18,ENE,75,0.0,-999.0,100,-99.99,,,0.02,weatherlink.com 1.10,2013-01-12 14:34:00,
2013-01-12 09:49:00,35.8,36.0,30.18,ENE,75,0.0,-999.0,100,-99.99,,,0.02,weatherlink.com 1.10,2013-01-12 14:49:00,
2013-01-12 10:04:00,36.2,36.0,30.19,ENE,75,0.0,-999.0,100,-99.99,,,0.02,weatherlink.com 1.10,2013-01-12 15:04:00,
2013-01-12 10:19:00,36.5,37.0,30.18,ENE,75,0.0,-999.0,100,-99.99,,,0.02,weatherlink.com 1.10,2013-01-12 15:19:00,
2013-01-12 10:34:00,36.8,37.0,30.19,ENE,75,0.0,-999.0,100,-99.99,,,0.02,weatherlink.com 1.10,2013-01-12 15:34:00,
2013-01-12 10:49:00,36.9,37.0,30.18,ENE,75,0.0,-999.0,100,-99.99,,,0.02,weatherlink.com 1.10,2013-01-12 15:49:00,
2013-01-12 11:04:00,37.8,38.0,30.16,ENE,75,0.0,-999.0,100,-99.99,,,0.02,weatherlink.com 1.10,2013-01-12 16:04:00,
2013-01-12 11:19:00,38.3,38.0,30.15,ENE,75,0.0,-999.0,100,-99.99,,,0.02,weatherlink.com 1.10,2013-01-12 16:19:00,
2013-01-12 11:34:00,38.8,39.0,30.13,ENE,75,0.0,-999.0,100,-99.99,,,0.02,weatherlink.com 1.10,2013-01-12 16:34:00,
2013-01-12 11:49:00,38.9,39.0,30.13,ENE,75,0.0,-999.0,100,-99.99,,,0.02,weatherlink.com 1.10,2013-01-12 16:49:00,
2013-01-12 12:04:00,39.1,39.0,30.12,ENE,75,0.0,-999.0,100,-99.99,,,0.02,weatherlink.com 1.10,2013-01-12 17:04:00,
2013-01-12 12:19:00,39.5,40.0,30.13,ENE,75,0.0,-999.0,100,-99.99,,,0.02,weatherlink.com 1.10,2013-01-12 17:19:00,
2013-01-12 12:34:00,39.6,40.0,30.12,ENE,75,0.0,-999.0,100,-99.99,,,0.02,weatherlink.com 1.10,2013-01-12 17:34:00,
2013-01-12 12:49:00,39.9,40.0,30.13,ENE,75,0.0,-999.0,100,-99.99,,,0.02,weatherlink.com 1.10,2013-01-12 17:49:00,
2013-01-12 13:04:00,40.3,40.0,30.13,ENE,75,0.0,-999.0,100,-99.99,,,0.02,weatherlink.com 1.10,2013-01-12 18:04:00,
2013-01-12 13:19:00,40.5,41.0,30.13,ENE,75,0.0,-999.0,100,-99.99,,,0.02,weatherlink.com 1.10,2013-01-12 18:19:00,
2013-01-12 13:34:00,40.5,41.0,30.14,ENE,75,0.0,-999.0,100,-99.99,,,0.02,weatherlink.com 1.10,2013-01-12 18:34:00,
2013-01-12 13:49:00,40.8,41.0,30.14,ENE,75,0.0,-999.0,100,-99.99,,,0.02,weatherlink.com 1.10,2013-01-12 18:49:00,
2013-01-12 14:04:00,40.8,41.0,30.13,ENE,75,0.0,-999.0,100,-99.99,,,0.02,weatherlink.com 1.10,2013-01-12 19:04:00,
2013-01-12 14:19:00,40.8,41.0,30.14,ENE,75,0.0,-999.0,100,-99.99,,,0.02,weatherlink.com 1.10,2013-01-12 19:19:00,
2013-01-12 14:34:00,40.8,41.0,30.14,ENE,75,0.0,-999.0,100,-99.99,,,0.02,weatherlink.com 1.10,2013-01-12 19:34:00,
2013-01-12 14:49:00,40.6,41.0,30.14,ENE,75,0.0,-999.0,100,-99.99,,,0.02,weatherlink.com 1.10,2013-01-12 19:49:00,
2013-01-12 15:04:00,40.6,41.0,30.14,ENE,75,0.0,-999.0,100,-99.99,,,0.02,weatherlink.com 1.10,2013-01-12 20:04:00,
2013-01-12 15:19:00,40.5,41.0,30.14,East,79,0.0,-999.0,100,-99.99,,,0.02,weatherlink.com 1.10,2013-01-12 20:19:00,
2013-01-12 15:34:00,40.3,40.0,30.14,East,79,0.0,-999.0,100,-99.99,,,0.02,weatherlink.com 1.10,2013-01-12 20:34:00,
2013-01-12 15:49:00,40.2,40.0,30.14,SE,137,0.0,-999.0,100,-99.99,,,0.02,weatherlink.com 1.10,2013-01-12 20:49:00,
2013-01-12 16:04:00,39.9,40.0,30.13,SE,137,0.0,-999.0,100,-99.99,,,0.02,weatherlink.com 1.10,2013-01-12 21:04:00,
2013-01-12 16:19:00,39.8,40.0,30.13,SE,137,0.0,-999.0,100,-99.99,,,0.02,weatherlink.com 1.10,2013-01-12 21:19:00,
2013-01-12 16:34:00,39.5,40.0,30.14,SE,137,0.0,-999.0,100,-99.99,,,0.02,weatherlink.com 1.10,2013-01-12 21:34:00,
2013-01-12 16:49:00,39.2,39.0,30.14,SE,137,0.0,-999.0,100,-99.99,,,0.02,weatherlink.com 1.10,2013-01-12 21:49:00,
2013-01-12 17:04:00,38.6,39.0,30.14,SE,137,0.0,-999.0,100,-99.99,,,0.02,weatherlink.com 1.10,2013-01-12 22:04:00,
2013-01-12 17:19:00,38.2,38.0,30.14,SE,137,0.0,-999.0,100,-99.99,,,0.02,weatherlink.com 1.10,2013-01-12 22:19:00,
2013-01-12 17:34:00,37.6,38.0,30.14,SE,137,0.0,-999.0,100,-99.99,,,0.02,weatherlink.com 1.10,2013-01-12 22:34:00,
2013-01-12 17:49:00,37.2,37.0,30.14,SE,137,0.0,-999.0,100,-99.99,,,0.02,weatherlink.com 1.10,2013-01-12 22:49:00,
2013-01-12 18:04:00,37.0,37.0,30.13,SE,137,0.0,-999.0,100,-99.99,,,0.02,weatherlink.com 1.10,2013-01-12 23:04:00,
2013-01-12 18:19:00,36.9,37.0,30.13,SE,137,0.0,-999.0,100,-99.99,,,0.02,weatherlink.com 1.10,2013-01-12 23:19:00,
2013-01-12 18:34:00,36.9,37.0,30.12,SE,137,0.0,-999.0,100,-99.99,,,0.02,weatherlink.com 1.10,2013-01-12 23:34:00,
2013-01-12 18:49:00,36.8,37.0,30.12,SE,137,0.0,-999.0,100,-99.99,,,0.02,weatherlink.com 1.10,2013-01-12 23:49:00,
2013-01-12 19:04:00,36.6,37.0,30.11,SE,137,0.0,-999.0,100,-99.99,,,0.02,weatherlink.com 1.10,2013-01-13 00:04:00,
2013-01-12 19:19:00,36.3,36.0,30.12,SE,137,0.0,-999.0,100,-99.99,,,0.02,weatherlink.com 1.10,2013-01-13 00:19:00,
2013-01-12 19:34:00,36.3,36.0,30.12,SE,137,0.0,-999.0,100,-99.99,,,0.02,weatherlink.com 1.10,2013-01-13 00:34:00,
2013-01-12 19:49:00,36.3,36.0,30.12,SE,137,0.0,-999.0,100,-99.99,,,0.02,weatherlink.com 1.10,2013-01-13 00:49:00,
2013-01-12 20:04:00,36.3,36.0,30.12,SE,137,0.0,-999.0,100,-99.99,,,0.02,weatherlink.com 1.10,2013-01-13 01:04:00,
2013-01-12 20:19:00,36.5,37.0,30.13,SE,137,0.0,-999.0,100,-99.99,,,0.02,weatherlink.com 1.10,2013-01-13 01:19:00,
2013-01-12 20:34:00,36.9,37.0,30.13,SE,137,0.0,-999.0,100,-99.99,,,0.02,weatherlink.com 1.10,2013-01-13 01:34:00,
2013-01-12 20:49:00,37.2,37.0,30.13,SE,137,0.0,-999.0,100,-99.99,,,0.02,weatherlink.com 1.10,2013-01-13 01:49:00,
2013-01-12 21:04:00,37.3,37.0,30.12,SE,137,0.0,-999.0,100,-99.99,,,0.02,weatherlink.com 1.10,2013-01-13 02:04:00,
2013-01-12 21:19:00,37.2,37.0,30.12,SE,137,0.0,-999.0,100,-99.99,,,0.02,weatherlink.com 1.10,2013-01-13 02:19:00,
2013-01-12 21:34:00,37.0,37.0,30.12,SE,137,0.0,-999.0,100,-99.99,,,0.02,weatherlink.com 1.10,2013-01-13 02:34:00,
2013-01-12 21:49:00,37.0,37.0,30.12,SE,137,0.0,-999.0,100,-99.99,,,0.02,weatherlink.com 1.10,2013-01-13 02:49:00,
2013-01-12 22:04:00,36.5,37.0,30.11,SE,137,0.0,-999.0,100,-99.99,,,0.02,weatherlink.com 1.10,2013-01-13 03:04:00,
2013-01-12 22:19:00,36.5,37.0,30.11,SE,137,0.0,-999.0,100,-99.99,,,0.02,weatherlink.com 1.10,2013-01-13 03:19:00,
2013-01-12 22:34:00,36.9,37.0,30.11,SE,137,0.0,-999.0,100,-99.99,,,0.02,weatherlink.com 1.10,2013-01-13 03:34:00,
2013-01-12 22:49:00,36.9,37.0,30.11,SE,137,0.0,-999.0,100,-99.99,,,0.02,weatherlink.com 1.10,2013-01-13 03:49:00,
2013-01-12 23:04:00,36.9,37.0,30.11,SE,137,0.0,-999.0,100,-99.99,,,0.02,weatherlink.com 1.10,2013-01-13 04:04:00,
2013-01-12 23:19:00,36.8,37.0,30.12,SE,137,0.0,-999.0,100,-99.99,,,0.02,weatherlink.com 1.10,2013-01-13 04:19:00,
2013-01-12 23:34:00,36.6,37.0,30.11,SE,137,0.0,-999.0,100,-99.99,,,0.02,weatherlink.com 1.10,2013-01-13 04:34:00,
2013-01-12 23:49:00,36.6,37.0,30.11,SE,137,0.0,-999.0,100,-99.99,,,0.02,weatherlink.com 1.10,2013-01-13 04:49:00,